BREEZE-M DEB, 39993

Orbit data source: Space-Track

BREEZE-M DEB, 39993 is space debris in HEO originally from a launch on Fri, 14 Mar 2008 UTC launched from the Tyuratam Missile And Space Complex (TTMTR). Debris objects in space refer to the collection of defunct objects orbiting the Earth. Examples of debris include non-operational satellites, rocket bodies, and fragments generated from explosions, collisions, or faulty payload assembly.

Loading next visibility...
Identifier
39993, 2008-011DS
Orbit
HEO
Country
Flag of CISCIS
Related business
Manufacturer
Unknown
Mission
Spacecraft
Bus & Motor
Unknown
Mass
Unknown
Launch date (UTC)
2008-03-14 (18 years ago)
Launch vehicle
Unknown
Launch site
Tyuratam Missile And Space Complex (TTMTR)
Object type
Payload
Rocket body
Debris
Shape & HBR
Unknown shape, 0.1 m
Radar Cross Section
Medium (>0.1 m² and <1 m²)

Expand to show TLE details & history
Last TLE update: 10 months ago

TLE from 10 months ago
0 BREEZE-M DEB
1 39993U 08011DS  25242.99132959  .00000018  00000-0 -99854-3 0  9993
2 39993  50.9767 149.4089 6355867 268.0948  23.3818  3.17718844130609
Epoch: 2025-08-30T23:47Z
TLE epoch observation values (Epoch: 2025-08-30T23:47:30.876Z)
Latitude
0.00009°
Longitude
173.12792°
Altitude
5,542.87 km
Speed
6.818 km/s
True Right ascension
09h 57m 41s
True Declination
0° 00' 00"
Sunlit
Object was in daylight at epoch
Visualization orbit readout
Latitude
Unknown
Longitude
Unknown
Altitude
Unknown
Speed
Unknown
Apparent Right ascension
Unknown
Apparent Declination
Unknown
Sunlit
N/A
Visualization observer readout
Local Sidereal Time
11:03:42
Azimuth
Unknown
Elevation
Unknown
Doppler factor
Unknown
Orbital elements
Apogee altitude
25,590.491 km
Perigee altitude
744.563 km
Semi-major axis
19,545.664 km
Eccentricity
0.63559
Inclination
50.9767°
RAAN
149.4089°
Arg. of periapsis
268.0948°
True anomaly
92.03882°
Mean anomaly
23.3818°
Eccentric anomaly
52.12859°
Mean motion
0.79427 °/min
Orbital period
453.25 mins
BSTAR
-0.00099854
Loading maneuver chart data...
Computing Atmospheric mass density...
Loading historical data...
Loading historical data...
Loading historical data...
Loading historical data...
Loading historical data...
Loading historical data...
Loading historical data...

Documentation

Showing up to 5 results
|